Location: Grums
(59.3529°N, 13.1129°E)
Time: 09:12:02
(UTC+02:00)

Envisat - Pass Details

Date: 02 October 2021
Orbit: 764 x 766 km, 98.2° (Epoch: 16 October)

Event Time Altitude Azimuth Distance (km) Brightness Sun altitude
Rises 04:53:03 0° 23° (NNE) 3,247 7.0 -18.4°
Reaches altitude 10° 04:56:12 10° 43° (NE) 2,315 6.5 -18.1°
Maximum altitude 04:59:29 17° 83° (E) 1,873 6.0 -17.7°
Drops below altitude 10° 05:02:44 10° 124° (ESE) 2,304 5.9 -17.3°
Sets 05:05:52 0° 144° (SE) 3,225 6.4 -16.9°
